Location: *
(51.0333°S, 178.4667°E)
Time: 14:39:03
(UTC+00:00)

Envisat - Pass Details

Date: 19 January 2020
Orbit: 764 x 766 km, 98.1° (Epoch: 28 February)

Event Time Altitude Azimuth Distance (km) Brightness Sun altitude
Rises 09:01:21 0° 178° (S) 3,278 7.0 -6.7°
Reaches altitude 10° 09:04:51 10° 203° (SSW) 2,344 6.8 -7.1°
Maximum altitude 09:07:17 14° 231° (SW) 2,100 6.8 -7.4°
Drops below altitude 10° 09:09:42 10° 259° (W) 2,333 6.4 -7.6°
Sets 09:13:11 0° 284° (WNW) 3,252 6.7 -8.0°
